Flag for Croatia Weather past 2 weeks in Dubrovnik, Croatia

Now
82 °F

Passing clouds.


Feels Like: 82 °F
Forecast: 75 / 85 °F
Wind: 6 mph from Southwest

Location: Dubrovnik / Cilipi

Current Time: Aug 29, 2015 at 11:40:58 PM

Latest Report: Aug 29, 2015 at 11:00 PM


Visibility: N/A

Pressure: 30.12 "Hg

Humidity: 42%

Dew point: 57 °F

Location of DubrovnikLocation

Historic Weather in Dubrovnik — Graph

°F

Dubrovnik temperature yesterday

Maximum temperature yesterday: 86 °F (at 9:30 AM)
Minimum temperature yesterday: 70 °F (at 3:00 AM)
Average temperature yesterday: 80 °F

Past Weeks' High & Low Weather Summary

 TemperatureHumidityPressure
High88 °F (Aug 29, 1:00 PM)100% (Aug 17, 2:30 AM)30.18 "Hg (Aug 17, 2:30 AM)
Low64 °F (Aug 16, 10:30 PM)33% (Aug 29, 10:00 PM)29.74 "Hg (Aug 16, 11:30 AM)
Average76 °F65%29.97 "Hg
* Reported Aug 14 10:00 PM — Aug 29 10:30 PM, Dubrovnik, Weather by CustomWeather, © 2015

Note: Actual official high and low records may vary slightly from our data, if they occured in-between our weather recording intervals... More about our weather records

Advertising

Dubrovnik weather history for previous 24 hours

 ConditionsComfort  
Time TempWeatherWind HumidityBarometerVisibility
10:30 PM
Sat, Aug 29
86 °FClear.6 mph38%30.12 "Hg10 mi
10:00 PM88 °FClear.1 mph33%30.12 "Hg10 mi
9:30 PM84 °FClear.1 mph55%30.12 "Hg10 mi
9:00 PM82 °FPassing clouds.5 mph62%30.12 "HgN/A
8:30 PM81 °FClear.8 mph66%30.12 "Hg10 mi
8:00 PM79 °FPassing clouds.8 mph74%30.09 "HgN/A
7:30 PM79 °FSunny.9 mph79%30.09 "Hg10 mi
7:00 PM81 °FSunny.10 mph70%30.09 "Hg10 mi
6:30 PM82 °FSunny.10 mph66%30.09 "Hg10 mi
6:00 PM84 °FSunny.12 mph58%30.12 "Hg10 mi
5:30 PM84 °FPassing clouds.12 mph62%30.12 "HgN/A
5:00 PM84 °FSunny.13 mph62%30.12 "Hg10 mi
4:30 PM86 °FPassing clouds.12 mph59%30.12 "HgN/A
4:00 PM86 °FPassing clouds.10 mph59%30.12 "HgN/A
3:30 PM86 °FPassing clouds.12 mph55%30.12 "HgN/A
3:00 PM86 °FPassing clouds.9 mph59%30.12 "HgN/A
2:30 PM88 °FPassing clouds.9 mph55%30.15 "HgN/A
2:00 PM86 °FPassing clouds.10 mph59%30.15 "HgN/A
1:30 PM88 °FPassing clouds.9 mph52%30.15 "HgN/A
1:00 PM88 °FPassing clouds.7 mph52%30.15 "HgN/A
12:00 PM86 °FPassing clouds.7 mph55%30.15 "HgN/A
11:30 AM86 °FPassing clouds.6 mph55%30.15 "HgN/A
11:00 AM86 °FPassing clouds.6 mph52%30.18 "HgN/A
10:00 AM84 °FPassing clouds.5 mph58%30.15 "HgN/A
9:30 AM84 °FSunny.2 mph62%30.15 "Hg10 mi
9:00 AM84 °FSunny.1 mph55%30.15 "Hg10 mi
8:00 AM81 °FSunny.1 mph62%30.12 "Hg10 mi
7:30 AM77 °FSunny.3 mph57%30.12 "Hg10 mi
7:00 AM75 °FClear.2 mph65%30.12 "Hg10 mi
6:00 AM73 °FClear.2 mph69%30.12 "Hg10 mi
5:00 AM81 °FPassing clouds.8 mph45%30.09 "HgN/A
4:30 AM79 °FClear.2 mph51%30.09 "Hg10 mi
4:00 AM81 °FPassing clouds.5 mph48%30.09 "HgN/A
3:30 AM82 °FPassing clouds.7 mph45%30.09 "HgN/A
3:00 AM82 °FPassing clouds.8 mph45%30.09 "HgN/A
2:30 AM82 °FClear.2 mph48%30.09 "Hg10 mi
2:00 AM84 °FClear.10 mph45%30.09 "Hg10 mi
1:30 AM84 °FClear.7 mph45%30.09 "Hg10 mi
1:00 AM82 °FClear.6 mph48%30.09 "Hg10 mi
12:30 AM84 °FPassing clouds.16 mph45%30.09 "HgN/A
12:00 AM84 °FClear.9 mph45%30.09 "Hg10 mi
11:30 PM
Fri, Aug 28
84 °FClear.9 mph45%30.09 "Hg10 mi
11:00 PM84 °FPassing clouds.10 mph45%30.09 "HgN/A
Weather by CustomWeather, © 2015

See weather overviewHow to use our weather pages